WB5OMR-9 Weather Reports


time (UTC)temp
C
wind
direction
speed
KPH
gust
KPH
rain 1hr
cm
rain 24hr
cm
rain mn
cm
humidity
%
barometer
mb
20260904050023 28 157 0.0 0.0 0.00 0.00 0.00 70 1013.2
20260904045023 28 112 0.0 0.0 0.00 0.00 0.00 68 1013.2
20260904044022 28 135 0.0 0.0 0.00 0.00 0.00 67 1013.2
20260904043021 29 157 0.0 0.0 0.00 0.00 0.00 66 1013.2
20260904042019 29 135 0.0 0.0 0.00 0.00 0.00 64 1013.2
20260904040936 29 135 0.0 0.0 0.00 0.00 0.00 62 1012.9
20260904035853 30 112 0.0 0.0 0.00 0.00 0.00 60 1012.9
20260904034851 30 90 0.0 0.0 0.00 0.00 0.00 56 1012.5
20260904033850 30 135 0.0 0.0 0.00 0.00 0.00 55 1012.5
20260904032848 30 135 0.0 0.0 0.00 0.00 0.00 54 1012.5
20260904031805 31 157 0.0 0.0 0.00 0.00 0.00 51 1012.2
20260904030721 31 135 0.0 0.0 0.00 0.00 0.00 50 1011.5
20260904025721 31 180 0.0 0.0 0.00 0.00 0.00 49 1012.2
20260904024720 32 180 0.0 0.0 0.00 0.00 0.00 48 1012.5
20260904023719 32 112 0.0 0.0 0.00 0.00 0.00 48 1011.9
20260904022718 32 135 0.0 0.0 0.00 0.00 0.00 48 1011.5
20260904021717 33 135 0.0 0.0 0.00 0.00 0.00 46 1011.5
20260904020716 33 180 0.0 0.0 0.00 0.00 0.00 45 1011.2
20260904015715 34 157 0.0 0.0 0.00 0.00 0.00 45 1011.2
20260904014713 35 180 0.0 0.0 0.00 0.00 0.00 45 1010.5
20260904013712 35 157 0.0 0.0 0.00 0.00 0.00 44 1010.5
20260904012711 36 112 0.0 0.0 0.00 0.00 0.00 40 1010.2
20260904011710 36 112 0.0 0.0 0.00 0.00 0.00 37 1009.8
20260904010708 36 67 0.0 0.0 0.00 0.00 0.00 36 1009.8
20260904005707 37 90 0.0 0.0 0.00 0.00 0.00 35 1009.8
20260904004624 37 112 0.0 0.0 0.00 0.00 0.00 35 1009.8
20260904003541 37 112 0.0 0.0 0.00 0.00 0.00 33 1009.8
20260904002540 38 135 0.0 0.0 0.00 0.00 0.00 33 1009.5
20260904001456 38 157 0.0 0.0 0.00 0.00 0.00 32 1009.5
20260904000455 38 112 0.0 0.0 0.00 0.00 0.00 32 1009.5
20260903235454 39 135 0.0 0.0 0.00 0.00 0.00 31 1009.5
20260903234454 40 112 0.0 0.0 0.00 0.00 0.00 30 1009.5
20260903233452 40 247 0.0 0.0 0.00 0.00 0.00 31 1009.5
20260903232408 41 247 0.0 0.0 0.00 0.00 0.00 30 1009.5
20260903231325 41 247 0.0 0.0 0.00 0.00 0.00 30 1009.5
20260903230324 41 247 0.0 0.0 0.00 0.00 0.00 30 1009.5
20260903225323 41 112 0.0 0.0 0.00 0.00 0.00 29 1009.5
20260903224322 42 90 0.0 0.0 0.00 0.00 0.00 28 1009.5
20260903223322 42 157 0.0 0.0 0.00 0.00 0.00 28 1009.5
20260903222320 42 45 0.0 0.0 0.00 0.00 0.00 28 1009.5
20260903221319 42 112 0.0 0.0 0.00 0.00 0.00 29 1009.5
20260903220319 42 112 0.0 0.0 0.00 0.00 0.00 29 1009.8
20260903215317 42 112 0.0 0.0 0.00 0.00 0.00 30 1009.8
20260903214316 42 112 0.0 0.0 0.00 0.00 0.00 30 1009.8
20260903213314 41 180 0.0 0.0 0.00 0.00 0.00 31 1009.8
20260903212314 42 157 0.0 0.0 0.00 0.00 0.00 31 1009.8
20260903211313 42 247 0.0 0.0 0.00 0.00 0.00 31 1010.2
20260903210311 42 157 0.0 0.0 0.00 0.00 0.00 31 1010.2
20260903205310 43 180 0.0 0.0 0.00 0.00 0.00 31 1010.2
20260903204309 42 135 0.0 0.0 0.00 0.00 0.00 33 1010.2
20260903203308 41 90 0.0 0.0 0.00 0.00 0.00 34 1010.5
20260903202307 41 135 0.0 0.0 0.00 0.00 0.00 34 1010.8
20260903201306 42 202 0.0 0.0 0.00 0.00 0.00 34 1010.8
20260903200305 41 135 0.0 0.0 0.00 0.00 0.00 34 1010.8
20260903195306 41 180 0.0 0.0 0.00 0.00 0.00 34 1010.8
20260903194303 42 157 0.0 0.0 0.00 0.00 0.00 34 1011.2
20260903193303 41 180 0.0 0.0 0.00 0.00 0.00 35 1011.2
20260903192219 41 202 0.0 0.0 0.00 0.00 0.00 35 1011.5
20260903191136 41 180 0.0 0.0 0.00 0.00 0.00 36 1011.9
20260903190135 41 247 0.0 0.0 0.00 0.00 0.00 36 1012.2
20260903185052 40 225 0.0 0.0 0.00 0.00 0.00 38 1012.2
20260903184051 40 247 0.0 0.0 0.00 0.00 0.00 39 1012.5
20260903183050 41 157 0.0 0.0 0.00 0.00 0.00 38 1012.5
20260903182048 40 270 0.0 0.0 0.00 0.00 0.00 39 1012.9
20260903181047 40 157 0.0 0.0 0.00 0.00 0.00 42 1013.2
20260903180046 39 135 0.0 0.0 0.00 0.00 0.00 43 1013.2
20260903175044 39 247 0.0 0.0 0.00 0.00 0.00 44 1013.2
20260903174043 38 225 0.0 0.0 0.00 0.00 0.00 46 1013.9
20260903173042 38 90 0.0 0.0 0.00 0.00 0.00 46 1013.9
20260903172041 38 202 0.0 0.0 0.00 0.00 0.00 47 1013.2
20260903171040 37 247 0.0 0.0 0.00 0.00 0.00 49 1012.9
20260903170039 37 157 0.0 0.0 0.00 0.00 0.00 50 1013.2
20260903165039 36 247 0.0 0.0 0.00 0.00 0.00 53 1013.5
20260903163956 36 247 0.0 0.0 0.00 0.00 0.00 55 1013.5
20260903162954 35 247 0.0 0.0 0.00 0.00 0.00 55 1013.9
20260903161953 35 247 0.0 0.0 0.00 0.00 0.00 58 1013.9
20260903160953 34 247 0.0 0.0 0.00 0.00 0.00 59 1013.5
20260903155952 33 247 0.0 0.0 0.00 0.00 0.00 61 1013.5
20260903154950 32 247 0.0 0.0 0.00 0.00 0.00 63 1013.5
20260903153907 32 135 0.0 0.0 0.00 0.00 0.00 67 1013.9
20260903152906 31 180 0.0 0.0 0.00 0.00 0.00 68 1013.9
20260903151905 31 157 0.0 0.0 0.00 0.00 0.00 70 1013.9
20260903150904 30 157 0.0 0.0 0.00 0.00 0.00 71 1013.9
20260903145903 30 135 0.0 0.0 0.00 0.00 0.00 73 1013.9
20260903144902 29 180 0.0 0.0 0.00 0.00 0.00 75 1013.9
20260903143901 29 180 0.0 0.0 0.00 0.00 0.00 75 1013.9
20260903142900 28 157 0.0 0.0 0.00 0.00 0.00 77 1013.9
20260903141859 28 180 0.0 0.0 0.00 0.00 0.00 77 1013.9
20260903140859 28 135 0.0 0.0 0.00 0.00 0.00 79 1014.2
20260903135857 28 135 0.0 0.0 0.00 0.00 0.00 80 1013.9
20260903134857 27 157 0.0 0.0 0.00 0.00 0.00 80 1014.2
20260903133856 27 135 0.0 0.0 0.00 0.00 0.00 81 1014.2
20260903132855 27 112 0.0 0.0 0.00 0.00 0.00 82 1014.2
20260903131854 27 157 0.0 0.0 0.00 0.00 0.00 82 1014.2
20260903130853 26 112 0.0 0.0 0.00 0.00 0.00 82 1014.2
20260903125852 26 112 0.0 0.0 0.00 0.00 0.00 82 1013.9
20260903124850 26 90 0.0 0.0 0.00 0.00 0.00 82 1013.9
20260903123849 26 112 0.0 0.0 0.00 0.00 0.00 82 1013.5
20260903122805 26 112 0.0 0.0 0.00 0.00 0.00 83 1013.5
20260903121804 26 135 0.0 0.0 0.00 0.00 0.00 83 1013.5
20260903120803 26 157 0.0 0.0 0.00 0.00 0.00 83 1013.5
20260903115802 26 135 0.0 0.0 0.00 0.00 0.00 82 1013.5
20260903114801 26 135 0.0 0.0 0.00 0.00 0.00 82 1013.2
20260903113800 26 135 0.0 0.0 0.00 0.00 0.00 82 1013.2
20260903112759 26 157 0.0 0.0 0.00 0.00 0.00 82 1013.5
20260903111758 26 135 0.0 0.0 0.00 0.00 0.00 82 1013.5
20260903110756 27 157 0.0 0.0 0.00 0.00 0.00 81 1013.5
20260903105756 27 135 0.0 0.0 0.00 0.00 0.00 81 1013.2
20260903104754 27 157 0.0 0.0 0.00 0.00 0.00 81 1013.5
20260903103753 27 135 0.0 0.0 0.00 0.00 0.00 81 1013.5
20260903102752 27 157 0.0 0.0 0.00 0.00 0.00 81 1013.2
20260903101750 27 180 0.0 0.0 0.00 0.00 0.00 81 1013.2
20260903100707 27 135 0.0 0.0 0.00 0.00 0.00 81 1013.2
20260903095624 27 157 0.0 0.0 0.00 0.00 0.00 80 1013.2
20260903094540 27 180 0.0 0.0 0.00 0.00 0.00 80 1013.2
20260903093539 27 135 0.0 0.0 0.00 0.00 0.00 80 1013.2
20260903092538 27 135 0.0 0.0 0.00 0.00 0.00 80 1013.2
20260903091537 27 135 0.0 0.0 0.00 0.00 0.00 80 1013.2
20260903090536 27 157 0.0 0.0 0.00 0.00 0.00 79 1013.2
20260903085535 27 112 0.0 0.0 0.00 0.00 0.00 79 1013.2
20260903084452 27 157 0.0 0.0 0.00 0.00 0.00 78 1013.2
20260903083409 27 157 0.0 0.0 0.00 0.00 0.00 78 1013.2
20260903082325 27 157 0.0 0.0 0.00 0.00 0.00 78 1013.2
20260903081324 27 157 0.0 0.0 0.00 0.00 0.00 76 1013.5
20260903080323 27 157 0.0 0.0 0.00 0.00 0.00 75 1013.5
20260903075322 27 135 0.0 0.0 0.00 0.00 0.00 74 1013.2
20260903074320 27 157 0.0 0.0 0.00 0.00 0.00 75 1013.2
20260903073318 28 135 0.0 0.0 0.00 0.00 0.00 73 1013.2
20260903072318 28 112 0.0 0.0 0.00 0.00 0.00 72 1013.2
20260903071317 28 157 0.0 0.0 0.00 0.00 0.00 72 1013.2
20260903070316 28 157 0.0 0.0 0.00 0.00 0.00 70 1013.2
20260903065315 28 135 0.0 0.0 0.00 0.00 0.00 69 1013.2
20260903064313 28 135 0.0 0.0 0.00 0.00 0.00 69 1013.2
20260903063312 28 157 0.0 0.0 0.00 0.00 0.00 68 1013.2
20260903062311 28 135 0.0 0.0 0.00 0.00 0.00 68 1013.5
20260903061310 29 157 0.0 0.0 0.00 0.00 0.00 67 1013.5
20260903060309 29 157 0.0 0.0 0.00 0.00 0.00 67 1013.5
20260903055307 30 157 0.0 0.0 0.00 0.00 0.00 66 1013.5
20260903054306 30 157 0.0 0.0 0.00 0.00 0.00 66 1013.5
20260903053305 30 135 0.0 0.0 0.00 0.00 0.00 65 1013.5
20260903052307 30 157 0.0 0.0 0.00 0.00 0.00 64 1013.5
20260903051303 30 90 0.0 0.0 0.00 0.00 0.00 63 1013.2
20260903050302 30 157 0.0 0.0 0.00 0.00 0.00 63 1013.2